"Pseudo-MPEC" for P117RX5

Created 2020 Oct 18 23:07:30 UT using Find_Orb

Click here for an explanation of pseudo-MPECs

 
 Astrometry: 
     P117RX5  C2020 10 140]=(1.CZeSFek%nhCQ`b2oJ:GiecyHZ\flj0UdZ!P%W/sE,$`ojUF51
     P117RX5  C2020 10 14?+Vcpt?.x+ho'CZ;xd@0smUroOb$nm[Wd/t]=rhr;8S8Ln76hGc[F51
     P117RX5  C2020 10 14VCSLrpPg=eAstrometryx[NrFEa:yqRK?C;-D$hUHv[tFeac+:EYF51
     P117RX5  C2020 10 14fc%e$w%Wn2(3UwtTVc/X_jR_UnH`.mtt1S`iQ?GyQ)ga'a;]$$;=F51
     P117RX5  C2020 10 16nG#;KIrlx]E8MPWN*cWqJ82eu7ij.7redacted;81n-621.$/F$GF51
     P117RX5  C2020 10 16M.X!8AXckqv0FgSkuj]`_jvK!_*d+beXpDY/?kreHu=5O.eskK25F51
     P117RX5  C2020 10 16^kaB/l*u$Ts7c8\6#y^SN($mUIh^t)click[H9',4+`avJyY:WXxF51
     P117RX5  C2020 10 160NlRs!!li9fowHq6)#$5ehereeBD\u4_*;+\hfor-7ZP+G(IqrROF51
     P117RX5  C2020 10 18vAma-5Y+K/._nlTT)C;@#E%$E-'q%4FU/mp\PH-_0F-V!;_DVG+!F51
     P117RX5  C2020 10 18m-explanationrLA\QeRGG(ITA3!OjjO!/!Wo'X5Qh0IJ;5W=\_@F51
     P117RX5  C2020 10 18k'TF0x'U7#2,+EtvD^yIT4qKe7FEVC1K@@wS\R$VNHoMqIwtg=1]F51

Station data:
(F51) Pan-STARRS 1, Haleakala  (N20.707235 W156.255910)  US/Hawaii.
   Observers N. Primak, A. Schultz, S. Watters, J. Thiel, T. Goggia. Measurer
   PS1 Science Consortium. 1.8-m Ritchey-Chrétien + CCD.

Orbital elements:  P117RX5
   Perihelion 2020 Aug 28.328904 +/- 0.166 TT =  7:53:37 (JD 2459089.828904)
Epoch 2020 Oct 18.0 TT = JDT 2459140.5   Earth MOID: 0.4691   AutoNEOCP
M  12.75987297 +/- 0.27             (J2000 ecliptic)
n   0.25181758 +/- 0.00484          Peri.  278.83277 +/- 0.6
a   2.48358300 +/- 0.0318           Node    74.12131 +/- 0.29
e   0.4764345 +/- 0.00421           Incl.   19.29585 +/- 0.31
P   3.91                   H 22.0   G  0.15   U  9.2  
q 1.30031818 +/- 0.00684    Q 3.66684782 +/- 0.0582
From 11 observations 2020 Oct. 14-18; mean residual 0".06
Residuals in arcseconds: 
201014 F51  .06+  .08-    201016 F51  .09-  .07+    201018 F51  .03-  .06+    
201014 F51  .06-  .07+    201016 F51  .00   .03-    201018 F51  .00   .13-    
201014 F51  .04+  .02+    201016 F51  .10+  .03-    201018 F51  .03+  .06+    
201014 F51  .05-  .01-    201016 F51  .00   .01-    

Ephemerides (geocentric):
Date (UTC) HH   RA              Dec         delta   r     elong  mag " sig PA
---- -- -- --  -------------   -----------  ------ ------ -----  --- ---- ---
2020 10 18 23  04 05 09.506   -16 48 50.06  .51390 1.4042 134.3 22.6 .330  85
2020 10 19 00  04 05 06.726   -16 47 53.12  .51388 1.4043 134.4 22.6 .345  84
2020 10 19 01  04 05 03.941   -16 46 56.12  .51386 1.4045 134.4 22.6 .361  83
2020 10 19 02  04 05 01.150   -16 45 59.06  .51384 1.4046 134.5 22.6 .377  82
2020 10 19 03  04 04 58.354   -16 45 01.94  .51382 1.4048 134.5 22.6 .394  81
2020 10 19 04  04 04 55.553   -16 44 04.76  .51381 1.4049 134.5 22.6 .410  80
2020 10 19 05  04 04 52.746   -16 43 07.53  .51379 1.4051 134.6 22.6 .428  79
2020 10 19 06  04 04 49.934   -16 42 10.23  .51377 1.4053 134.6 22.6 .445  78
2020 10 19 07  04 04 47.117   -16 41 12.87  .51375 1.4054 134.7 22.6 .463  77
2020 10 19 08  04 04 44.295   -16 40 15.46  .51374 1.4056 134.7 22.6 .480  76
2020 10 19 09  04 04 41.467   -16 39 17.98  .51372 1.4057 134.7 22.6 .499  76
2020 10 19 10  04 04 38.635   -16 38 20.45  .51370 1.4059 134.8 22.6 .517  75
2020 10 19 11  04 04 35.797   -16 37 22.85  .51369 1.4061 134.8 22.6 .536  74
2020 10 19 12  04 04 32.953   -16 36 25.20  .51367 1.4062 134.9 22.6 .555  74
2020 10 19 13  04 04 30.105   -16 35 27.48  .51366 1.4064 134.9 22.6 .574  73
2020 10 19 14  04 04 27.251   -16 34 29.71  .51364 1.4065 134.9 22.6 .594  73
2020 10 19 15  04 04 24.393   -16 33 31.87  .51363 1.4067 135.0 22.6 .613  72
2020 10 19 16  04 04 21.529   -16 32 33.98  .51361 1.4068 135.0 22.6 .633  72
2020 10 19 17  04 04 18.659   -16 31 36.03  .51359 1.4070 135.1 22.6 .654  71
2020 10 19 18  04 04 15.785   -16 30 38.02  .51358 1.4072 135.1 22.6 .674  71
2020 10 19 19  04 04 12.906   -16 29 39.94  .51357 1.4073 135.1 22.6 .695  70
2020 10 19 20  04 04 10.021   -16 28 41.81  .51355 1.4075 135.2 22.6 .716  70
2020 10 19 21  04 04 07.132   -16 27 43.62  .51354 1.4076 135.2 22.6 .737  69
2020 10 19 22  04 04 04.237   -16 26 45.37  .51352 1.4078 135.3 22.6 .758  69
2020 10 19 23  04 04 01.337   -16 25 47.06  .51351 1.4080 135.3 22.6 .780  69
2020 10 20 00  04 03 58.432   -16 24 48.69  .51350 1.4081 135.3 22.6 .802  68
2020 10 20 01  04 03 55.522   -16 23 50.26  .51348 1.4083 135.4 22.6 .824  68
2020 10 20 02  04 03 52.607   -16 22 51.77  .51347 1.4084 135.4 22.6 .846  68
2020 10 20 03  04 03 49.687   -16 21 53.22  .51346 1.4086 135.5 22.6 .868  67
2020 10 20 04  04 03 46.762   -16 20 54.61  .51344 1.4088 135.5 22.6 .891  67
2020 10 20 05  04 03 43.831   -16 19 55.94  .51343 1.4089 135.6 22.6 .914  67
2020 10 20 06  04 03 40.896   -16 18 57.21  .51342 1.4091 135.6 22.6 .937  66
2020 10 20 07  04 03 37.956   -16 17 58.42  .51341 1.4092 135.6 22.6 .961  66
2020 10 20 08  04 03 35.011   -16 16 59.58  .51339 1.4094 135.7 22.6 .984  66
2020 10 20 09  04 03 32.060   -16 16 00.67  .51338 1.4096 135.7 22.6 1.01  66
2020 10 20 10  04 03 29.105   -16 15 01.70  .51337 1.4097 135.8 22.6 1.03  65
2020 10 20 11  04 03 26.145   -16 14 02.68  .51336 1.4099 135.8 22.6 1.06  65
2020 10 20 12  04 03 23.179   -16 13 03.59  .51335 1.4100 135.8 22.6 1.08  65
2020 10 20 13  04 03 20.209   -16 12 04.44  .51334 1.4102 135.9 22.6 1.10  65
2020 10 20 14  04 03 17.234   -16 11 05.24  .51333 1.4104 135.9 22.6 1.13  64
2020 10 20 15  04 03 14.254   -16 10 05.97  .51332 1.4105 136.0 22.6 1.15  64
2020 10 20 16  04 03 11.269   -16 09 06.65  .51331 1.4107 136.0 22.6 1.18  64
2020 10 20 17  04 03 08.279   -16 08 07.26  .51330 1.4108 136.0 22.6 1.21  64
2020 10 20 18  04 03 05.284   -16 07 07.82  .51329 1.4110 136.1 22.6 1.23  63
2020 10 20 19  04 03 02.284   -16 06 08.32  .51328 1.4112 136.1 22.6 1.26  63
2020 10 20 20  04 02 59.280   -16 05 08.75  .51327 1.4113 136.2 22.6 1.28  63
2020 10 20 21  04 02 56.270   -16 04 09.13  .51326 1.4115 136.2 22.6 1.31  63
2020 10 20 22  04 02 53.256   -16 03 09.45  .51325 1.4116 136.3 22.6 1.33  63